www.pogodaiklimat.ru

Погода и климат >> Архив погоды >> Украина >> Никополь


ПОГОДА в Никополе

  • Прогноз погоды в Никополе
  • Монитор погоды в Никополе

АРХИВ ПОГОДЫ в Никополе

Время (UTC), дата Ветер
(напр.,м/с)
 
Видим.   Явления Облачность Т
(С)
Тd
(С)
f
(%)
Тe
(С)
Тes
(С)
Комфортность P
(гПа)
Po
(гПа)
Тmin
(С)
Tmax
(С)
R
(мм)
R24
(мм)
S
(см)
12 13.09 ЮВ 2 10 км 4/0
[Ci fib]
+27.0 +2.6 21 +25 +32 комфорт 1023.2 1016.8
15 13.09 В 1 10 км 4/0
[Ac trans Ci fib]
+26.6 +3.6 23 +25 +26 комфорт 1022.3 1015.9
18 13.09 штиль 0 16 км ясно +16.8 +10.6 67 +17 +17 1022.6 1016.0 +28.5
21 13.09 Ю 1 17 км ясно +16.4 +7.6 56 +17 +17 1022.6 1016.0
00 14.09 штиль 0 15 км ясно +13.3 +8.9 75 +13 +13 1021.8 1015.1
03 14.09 штиль 0 10 км ясно +11.5 +9.1 85 +11 +11 1021.1 1014.4
06 14.09 Ю 1 10 км 3/0
[Ci fib]
+20.3 +7.9 45 +23 +27 комфорт 1020.6 1014.1 +10.5
09 14.09 СЗ 2 10 км 4/0
[Ci fib]
+25.9 +4.9 26 +25 +34 комфорт 1019.2 1012.8
12 14.09 СЗ 2 10 км 10/4 1000 м
[Cu med, cong Ac trans Ci fib]
+27.2 +8.4 31 +27 +29 жарко 1018.7 1012.3
15 14.09 С 5 10 км 10/5 600 м
[Sc Ac und]
+24.1 +7.8 35 +24 +24 комфорт 1018.9 1012.5
18 14.09 С 5 17 км 10/0
[Ac trans Ci fib]
+20.2 +10.4 53 +22 +22 комфорт 1020.7 1014.2 +29.1
21 14.09 СЗ 2 17 км ясно +15.2 +5.2 51 +15 +15 1022.5 1015.9
00 15.09 С 2 17 км ясно +11.5 +1.2 49 +11 +11 1023.4 1016.7
03 15.09 С 2 10 км ясно +8.9 +6.3 84 +7 +7 1024.0 1017.2
06 15.09 С 2 10 км ясно +15.2 +5.2 51 +15 +19 1025.2 1018.5 +8.9
12 15.09 С 3 10 км 4/0
[Ci fib]
+22.4 +2.4 27 +22 +28 комфорт 1022.9 1016.4
15 15.09 З 2 10 км ясно +22.0 +3.7 30 +22 +22 комфорт 1021.7 1015.2
18 15.09 Ю 1 16 км 3/0
[Ac trans Ci fib]
+13.9 +7.8 67 +14 +14 1021.6 1014.9 +23.4
21 15.09 ЮЗ 1 17 км 4/0
[Ac trans Ci sp]
+16.6 +8.8 60 +18 +18 1020.7 1014.1
00 16.09 З 2 17 км ясно +14.2 +3.8 50 +14 +14 1019.6 1013.0
03 16.09 З 2 10 км ясно +12.9 +5.9 62 +12 +12 1018.4 1011.7
06 16.09 ЮЗ 4 10 км ясно +17.6 +10.2 62 +17 +20 1017.4 1010.8 +12.9
09 16.09 ЮЗ 5 10 км ясно +22.0 +6.7 37 +23 +28 комфорт 1015.5 1009.1
12 16.09 ЮЗ 4 10 км ясно +25.0 +7.0 32 +25 +30 комфорт 1012.8 1006.4
15 16.09 ЮЗ 5 10 км ясно +25.0 +11.4 43 +26 +27 жарко 1010.8 1004.4
18 16.09 ЮЗ 4 17 км ясно +21.8 +12.0 54 +24 +24 комфорт 1011.2 1004.8 +26.5
21 16.09 З 3 16 км ясно +18.2 +11.4 64 +19 +19 1011.0 1004.5
00 17.09 З 2 16 км ясно +15.4 +9.8 69 +15 +15 1010.2 1003.6
03 17.09 ЮЗ 1 10 км 4/0
[Ac trans]
+15.2 +11.5 79 +16 +16 1009.8 1003.2
06 17.09 З 1 10 км 10/0
[Ac lent Ci sp]
+18.6 +11.3 62 +20 +21 1010.0 1003.5 +15.2
09 17.09 СЗ 2 10 км 10/5 1000 м
[Sc Ac und]
+19.1 +9.0 52 +20 +22 1010.3 1003.8
12 17.09 З 1 10 км {ливн. осадки} 10/6 1050 м
[Sc Ac und]
+17.8 +11.8 68 +19 +20 1009.9 1003.4
15 17.09 ЮЗ 2 10 км 4/3 600 м
[Cu hum Ac cast]
+19.5 +11.9 61 +21 +22 комфорт 1008.9 1002.4
18 17.09 штиль 0 15 км ясно +14.3 +9.2 71 +14 +14 1009.9 1003.3 +20.5 0.0
21 17.09 ЮЗ 1 11 км 10/5 600 м
[Sc Ac und]
+12.8 +10.1 84 +13 +13 1009.7 1003.1
00 18.09 З 2 16 км 10/6 600 м
[Sc Ac und]
+16.3 +10.9 70 +16 +16 1008.8 1002.3
06 18.09 Ю 3 10 км {ливн. осадки} 9/5 600 м
[Sc Ac trans Ci fib]
+16.4 +14.1 86 +16 +17 1004.8 998.3 +12.8 0.0
12 18.09 З 6 10 км {ливн. осадки} 10/5 600 м
[Sc Ac und]
+18.0 +4.9 42 +17 +18 1008.5 1002.0
18 18.09 З 2 18 км ясно +12.7 +1.4 46 +12 +12 1013.7 1007.1 +20.1 3
00 19.09 З 3 16 км ясно +9.9 +3.7 65 +8 +8 1017.3 1010.6
06 19.09 З 3 10 км ясно +11.3 +5.1 66 +10 +12 1020.3 1013.6 +9.0
12 19.09 СЗ 3 10 км 6/4 1000 м
[Cu med, cong Ci fib]
+17.3 +1.9 35 +17 +20 1019.2 1012.6
18 19.09 З 1 16 км 3/0
[Ac trans]
+10.7 +4.4 65 +11 +11 1020.0 1013.3 +18.5
06 20.09 штиль 0 10 км 5/0
[Ac trans Ci fib]
+18.2 +15.1 82 +18 +22 1018.9 1012.3 +4.1

 

Местоположение метеостанции Никополь (Днепропетровская область, Украина): широта 47.58 долгота 34.45 высота над уровнем моря 55 м.

В архиве по умолчанию представлена погода в Никополе за последнюю неделю. Архивные данные за месяц целиком и за предыдущие месяцы, начиная с января 2011 года, Вы можете получить, выбрав интересующий диапазон дат из раскрывающегося списка и нажав кнопку "Ввод!".


*Определитесь, кто Вы:
робот инопланетянин человек

Внимание! Время в таблицах - всемирное. Для получения местного времени необходимо прибавить поправку, которая равна 2 ч.

Смотрите также архив погоды в соседних городах и на ближайших метеорологических станциях:

Погода в Запорожье (Запорожская область, Украина) (49 км)
Погода в Лошкаревке (Днепропетровская область, Украина) (50 км)
Погода в Пришибе (Запорожская область, Украина) (75 км)
Погода в Нижних Серогозах (Херсонская область, Украина) (81 км)
Погода в Великой Александровке (Херсонская область, Украина) (93 км)
Погода в Комиссаровке (Днепропетровская область, Украина) (103 км)
Погода в Кривом Роге (Днепропетровская область, Украина) (105 км)
Погода в Мелитополе (Запорожская область, Украина) (109 км)
Погода в Днепре (Днепропетровская область, Украина) (120 км)
Погода в Синельниково (Днепропетровская область, Украина) (120 км)

Пояснения к столбцам:

Ветер - указаны скорость ветра в м/с - средняя за 10 мин, порывы в срок и между сроками (в фигурных скобках) и направление, откуда дует ветер: С - северный, СВ - северо-восточный, В - восточный, ЮВ - юго-восточный, Ю - южный, ЮЗ - юго-западный, З - западный, СЗ - северо-западный.
Видимость - горизонтальная дальность видимости в метрах или километрах. При видимости от 1 до 10 км при отсутствии осадков обычно наблюдается дымка, при ухудшении видимости до 1 км и менее - туман. В сухую погоду видимость может ухудшаться дымом, пылью или мглою.
Явления - указаны атмосферные явления, наблюдавшиеся в срок или в последний час перед сроком; фигурными скобками обозначены явления, наблюдавшиеся между сроками (за 1-3 часа до срока); квадратными скобками обозначены град или гололедные отложения с указанием их диаметра в мм.
Облачность - указаны через наклонную черту общая и нижняя облачность в баллах и высота нижней границы облаков в метрах; квадратными скобками обозначены формы облаков: Ci - перистые, Cs - перисто-слоистые, Cc - перисто-кучевые, Ac - высококучевые, As - высокослоистые, Sc - слоисто-кучевые, Ns - слоисто-дождевые, Cu - кучевые, Cb - кучево-дождевые. Подробнее классификацию облаков см. в Атласе облаков (PDF).
T - Температура воздуха - температура, измеренная на высоте 2 м над землей.
Td - Температура точки росы - температура, при понижении до которой содержащийся в воздухе водяной пар достигнет насыщения.
f - Относительная влажность воздуха - влажноcть воздуха, измеренная на высоте 2 м над землей.
Te - Эффективная температура - температура, которую ощущает одетый по сезону человек в тени. Характеристика душности погоды. При расчете учитывается влияние влажности воздуха и скорости ветра на теплоощущения человека.
Tes - Эффективная температура на солнце - температура, которую ощущает человек, с поправкой на солнечный нагрев. Характеристика знойности погоды. Зависит от высоты солнца над горизонтом, облачности и скорости ветра. Ночью, в пасмурную погоду, а также при ветре 12 м/с и более поправка равна нулю.
P - Атмосферное давление - приведенное к уровню моря атмосферное давление.
Po - Атмосферное давление - измеренное на уровне метеостанции атмосферное давление.
Tmin - Минимальная температура - минимум температуры воздуха на высоте 2 м над землей.
Tmax - Максимальная температура - максимум температуры воздуха на высоте 2 м над землей.
R - Количество осадков - Количество выпавших осадков за период времени, мм. При наведении курсора мыши на число - период времени, за который выпало указанное количество осадков.
R24 - Количество осадков - Количество выпавших осадков за 24 часа, мм.
S - Снежный покров - Высота снежного покрова, см. При наведении курсора мыши на число - состояние снежного покрова и степень покрытия местности в баллах.